Location: Goldmont Forest
(38.0233°N, 120.2524°W)
Time: 08:45:37
(UTC+00:00)

IRIDIUM 106 - Pass Details

Date: 04 November 2024
Orbit: 776 x 779 km, 86.4° (Epoch: 06 December)

Event Time Altitude Azimuth Distance (km) Brightness Sun altitude
Rises 13:46:44 0° 17° (NNE) 3,266 7.6 -9.1°
Reaches altitude 10° 13:50:06 10° 39° (NE) 2,332 7.2 -8.5°
Maximum altitude 13:53:10 16° 76° (ENE) 1,964 7.4 -7.9°
Drops below altitude 10° 13:56:13 10° 112° (ESE) 2,323 8.5 -7.3°
Sets 13:59:32 0° 134° (SE) 3,244 8.7 -6.7°
